Погода в Величке

Польша     49°59′15″N   20°03′08″E
темп.,
°C
ветер,
м/с
пор.,
м/с
влажн.,
%
обл.,
%
осадки,
мм/ч
давл.,
гПа
погр.,
м
1 марта, пн
пн101:00+2сз368779 0.0 1033395
04:00+2зсз2588100 0.0 1033258
07:00+2зсз2491100 0.0 1034188
10:00+3сз128495 0.0 1035358
13:00+5сз237697 0.0 1036564
16:00+5ссз117362 0.1 1035589
19:00+2юв008539 0.1 103622
22:00+1юз12890 0.0 103622
2 марта, вт
вт201:00+1з12900 0.0 103722
04:00+1зюз23880 0.0 103548
07:00+1зюз34810 0.0 103596
10:00+7з36560 0.0 1034341
13:00+10з47520 0.0 1033477
16:00+9з48590 0.0 1032366
19:00+6зюз35720 0.0 1033101
22:00+4з23750 0.0 103331
3 марта, ср
ср301:00+3зюз22780 0.0 103424
04:00+2зюз22780 0.0 103223
07:00+2зюз12750 0.0 103223
10:00+8з12570 0.0 1030243
13:00+11зсз01470 0.0 1028387
16:00+11в01520 0.0 102680
19:00+8зюз126227 0.0 102622
22:00+5зюз247698 0.0 102484
4 марта, чт
чт401:00+4зюз257255 0.0 1023101
04:00+3юз24786 0.0 102091
07:00+3юз248020 0.0 101970
10:00+9з495961 0.0 1016604
13:00+12з6105477 0.0 10151024
16:00+10з51061100 0.0 1012694
19:00+8зюз377298 0.0 1011244
22:00+8юз31268100 0.0 1010439
5 марта, пт
пт501:00+7з41093100 2.7 1009577
04:00+5сз3692100 2.7 1009521
07:00+2с4795100 5.4 1012422
10:000с5894100 2.3 1014535
13:00+2с4663100 3.1 10171159
16:00+2с4549100 0.1 10191713
19:000ссз355493 0.1 1022375
22:00−1зсз24570 0.0 1024189